Flag for France Weather past 2 weeks in Paris, France

Now
54 °F

Fog.


Feels Like: 54 °F
Forecast: 47 / 64 °F
Wind: No wind

Location: Villacoublay

Current Time: Oct 26, 2014 at 7:24:21 AM

Latest Report: Oct 26, 2014 at 6:30 AM


Visibility: 2 mi

Pressure: 30.24 "Hg

Humidity: 100%

Dew point: 54 °F

Location of ParisLocation

Historic Weather in Paris — Graph

°F

Paris temperature yesterday

Maximum temperature yesterday: 59 °F (at 2:30 PM)
Minimum temperature yesterday: 52 °F (at 12:00 AM)
Average temperature yesterday: 55 °F

Past Weeks' High & Low Weather Summary

 TemperatureHumidityPressure
High73 °F (Oct 18, 2:00 PM)100% (Oct 11, 7:00 AM)30.33 "Hg (Oct 11, 7:00 AM)
Low43 °F (Oct 22, 7:00 AM)49% (Oct 14, 3:30 PM)29.56 "Hg (Oct 13, 3:00 AM)
Average56 °F82%29.97 "Hg
* Reported Oct 11 7:00 AM — Oct 26 6:30 AM, Paris, Weather by CustomWeather, © 2014

Note: Actual official high and low records may vary slightly from our data, if they occured in-between our weather recording intervals... More about our weather records

Advertising

Paris weather history for previous 24 hours

 ConditionsComfort  
Time TempWeatherWind HumidityBarometerVisibility
6:30 AM
Oct 26
54 °FFog.No wind100%30.24 "Hg2 mi
6:00 AM54 °FFog.No wind100%30.24 "Hg2 mi
5:30 AM54 °FFog.No wind100%30.24 "Hg2 mi
5:00 AM54 °FFog.2 mph100%30.24 "Hg2 mi
4:30 AM54 °FFog.No wind94%30.24 "Hg2 mi
4:00 AM54 °FFog.No wind100%30.24 "Hg2 mi
3:30 AM54 °FFog.1 mph94%30.24 "Hg2 mi
3:00 AM54 °FFog.No wind94%30.24 "Hg1 mi
2:30 AM54 °FFog.No wind94%30.24 "Hg1 mi
2:00 AM54 °FFog.2 mph100%30.24 "Hg2 mi
2:30 AM54 °FFog.No wind94%30.24 "Hg2 mi
2:00 AM52 °FPassing clouds.No wind94%30.24 "Hg1 mi
1:30 AM52 °FFog.No wind94%30.24 "Hg0 mi
1:00 AM54 °FFog.No wind94%30.24 "Hg0 mi
12:30 AM55 °FFog.No wind94%30.24 "Hg1 mi
12:00 AM55 °FFog.2 mph94%30.24 "Hg1 mi
11:30 PM
Oct 25
55 °FPartly cloudy.1 mph94%30.21 "Hg1 mi
11:00 PM55 °FFog.2 mph94%30.21 "Hg2 mi
10:30 PM55 °FFog.3 mph94%30.21 "Hg2 mi
10:00 PM55 °FMostly cloudy.No wind94%30.21 "Hg4 mi
9:30 PM55 °FPassing clouds.No wind94%30.21 "HgN/A
9:00 PM55 °FPartly cloudy.No wind94%30.21 "HgN/A
8:30 PM55 °FPartly cloudy.1 mph94%30.21 "HgN/A
8:00 PM57 °FPassing clouds.No wind88%30.18 "HgN/A
7:30 PM57 °FBroken clouds.1 mph88%30.18 "HgN/A
7:00 PM57 °FMore clouds than sun.No wind88%30.18 "HgN/A
6:30 PM59 °FMore clouds than sun.No wind82%30.15 "HgN/A
6:00 PM59 °FMore clouds than sun.2 mph82%30.15 "HgN/A
5:30 PM59 °FCloudy.No wind82%30.15 "HgN/A
5:00 PM59 °FBroken clouds.1 mph82%30.15 "HgN/A
4:30 PM59 °FMostly cloudy.2 mph82%30.15 "HgN/A
4:00 PM59 °FMostly cloudy.5 mph82%30.15 "HgN/A
3:30 PM59 °FMostly cloudy.3 mph82%30.15 "HgN/A
3:00 PM59 °FMostly cloudy.5 mph88%30.15 "HgN/A
2:30 PM59 °FMostly cloudy.1 mph88%30.15 "HgN/A
2:00 PM57 °FFog.No wind94%30.15 "Hg2 mi
1:30 PM57 °FFog.3 mph94%30.15 "Hg1 mi
1:00 PM57 °FMore clouds than sun.No wind88%30.15 "Hg5 mi
12:30 PM55 °FMostly cloudy.2 mph94%30.15 "HgN/A
12:00 PM55 °FMostly cloudy.2 mph94%30.12 "HgN/A
11:30 AM55 °FPartly sunny.3 mph94%30.12 "HgN/A
11:00 AM54 °FFog.3 mph94%30.12 "Hg3 mi
10:30 AM54 °FOvercast.1 mph88%30.12 "HgN/A
10:00 AM54 °FLow clouds.2 mph88%30.12 "HgN/A
9:30 AM54 °FMostly cloudy.3 mph88%30.09 "HgN/A
9:00 AM54 °FOvercast.3 mph88%30.09 "HgN/A
8:30 AM54 °FMostly cloudy.2 mph88%30.09 "HgN/A
8:00 AM54 °FMostly cloudy.3 mph88%30.07 "HgN/A
7:30 AM54 °FOvercast.3 mph88%30.07 "HgN/A
7:00 AM54 °FOvercast.3 mph88%30.07 "HgN/A
Weather by CustomWeather, © 2014

See weather overviewHow to use our weather pages